Regional Weather Roundup
Issued by NWS Kansas City/Pleasant Hill, MO

Home | Current Version | Previous Version | Graphics & Text | Print | Product List | Glossary Off
Versions: 1 2 3 4 5 6 7 8 9 10 11 12 13 14 15 16 17 18 19 20 21 22 23 24 25 26 27 28 29 30 31 32 33 34 35 36 37 38 39 40 41 42 43 44 45 46 47 48 49 50

000
ASUS43 KEAX 292010
RWREAX

WEATHER ROUNDUP FOR EASTERN KANSAS AND NORTHWEST MISSOURI
NATIONAL WEATHER SERVICE KANSAS CITY/PLEASANT HILL MO
300 PM CDT SAT AUG 29 2015

KSZ040-057-103>105-MOZ028-029-037-043-292100-
...KANSAS CITY METROPOLITAN AREA...

CITY           SKY/WX    TMP DP  RH WIND       PRES   REMARKS
K.C. INTL      CLOUDY    78  67  68 NW7       30.02F
K.C. DOWNTOWN  CLOUDY    77  69  76 NW3       30.00F
LEES SUMMIT    CLOUDY    77  67  71 NW6       30.01F
OLATHE - IXD   CLOUDY    76  67  73 N6        30.02F
OLATHE - OJC   CLOUDY    76  66  71 N5        30.01F
LAWRENCE       CLOUDY    73  66  78 N5        30.02F

$$

MOZ001>008-011>017-020>025-030>033-038>040-044>046-053-054-292100-
...NORTHERN AND CENTRAL MISSOURI...

CITY           SKY/WX    TMP DP  RH WIND       PRES   REMARKS
ST. JOSEPH     CLOUDY    74  66  76 N6        30.03F
MOSBY          CLOUDY    77  66  69 N7        30.01S
WARRENSBURG    CLOUDY    77  68  73 CALM      29.99F
WHITEMAN AFB   CLOUDY    79  68  69 CALM      29.98F
CLINTON          N/A     81  70  69 CALM      30.00F
SEDALIA        CLOUDY    81  67  62 NW6       30.01F
WARSAW         NOT AVBL
CHILLICOTHE      N/A     79  70  74 N5        30.01S
KIRKSVILLE     CLOUDY    78  68  71 S5        30.01S

$$

MOZ041-047>049-056>058-063>065-088>090-097-292100-
...EASTERN AND SOUTHERN MISSOURI...

CITY           SKY/WX    TMP DP  RH WIND       PRES   REMARKS
ST. LOUIS INTL CLOUDY    82  66  58 SW8       30.01F
SPIRIT OF STL  CLOUDY    81  69  67 S9        29.99F
COLUMBIA       CLOUDY    81  67  62 SW6       29.99F
JEFFERSON CITY CLOUDY    83  64  52 SW6       29.97F
ROLLA          MOSUNNY   83  65  54 SW12      30.00F
OSAGE BEACH    CLOUDY    82  64  54 W6        30.01S
SPRINGFIELD    CLOUDY    80  68  66 S10       30.00F
BRANSON        MOSUNNY   82  68  61 SE9       30.02F
JOPLIN         CLOUDY    80  68  66 MISG      30.00S
WEST PLAINS    PTSUNNY   73  65  75 SE3       30.06F

$$

IAZ060-094-KSZ022-034>040-054-083-096-NEZ052-066-093-292100-
...KANSAS...SOUTHEAST NEBRASKA AND IOWA...

CITY           SKY/WX    TMP DP  RH WIND       PRES   REMARKS
TOPEKA         CLOUDY    75  65  70 N5        30.03F
MANHATTAN      CLOUDY    72  64  76 VRB7      30.05F
EMPORIA        CLOUDY    71  63  75 VRB5      30.04F
CHANUTE        CLOUDY    79  65  62 N7        30.01S
WICHITA        CLOUDY    73  62  68 NE8       30.05F
OMAHA          CLOUDY    69  61  75 W5        30.07S
LINCOLN        MOSUNNY   73  62  68 VRB7      30.08F
FALLS CITY     CLOUDY    67  63  87 N5        30.05F
LAMONI         PTSUNNY   77  67  71 N9        30.02S
DES MOINES     CLOUDY    73  64  73 NW6       30.03S

$$




USA.gov is the U.S. government's official web portal to all federal, state and local government web resources and services.